GEFSMW_500_meanwind_030.txt.gz
Wind_Speed
33 32 30 29 27 25 23 21 22 22 21 21 21 20 19 18 18 18 18 18 18 19 18 18 19 21 22 22 23 22 21 20 20 19 18 18 19 20 20 20 21 21 21
35 34 32 31 29 27 24 23 24 24 24 23 23 22 21 21 20 20 19 19 19 19 19 20 21 23 24 24 24 24 24 23 23 22 20 20 20 20 20 20 21 21 21
37 35 32 31 30 28 26 25 25 26 27 26 26 24 24 23 22 21 20 20 20 21 20 21 23 24 24 25 25 25 26 26 26 25 22 22 21 21 21 21 22 22 21
38 36 33 32 31 29 28 28 27 29 30 30 28 27 26 24 23 22 21 22 22 22 23 23 24 25 25 26 27 26 27 28 28 28 27 24 22 22 22 23 23 22 22
38 36 35 33 32 31 31 31 30 32 34 34 31 29 27 24 23 22 22 23 23 24 24 25 26 26 27 27 28 28 28 29 30 30 29 27 23 23 24 23 23 23 22
36 36 36 35 35 34 34 34 34 36 36 36 35 31 27 24 22 21 22 23 24 25 25 25 26 26 26 27 27 27 27 28 29 30 30 28 25 24 24 23 24 24 23
34 34 35 36 37 37 37 38 37 38 39 37 33 29 26 23 21 20 20 22 23 24 25 26 26 26 26 26 26 26 27 28 29 29 30 30 30 27 24 24 24 25 25
32 34 34 36 38 38 39 39 37 38 39 37 30 25 21 20 18 19 20 22 23 24 25 26 26 26 26 25 25 26 26 26 26 27 29 29 29 27 25 24 24 25 26
30 32 33 35 37 38 38 38 38 38 36 31 26 22 19 18 18 19 20 22 24 25 26 26 25 25 25 25 25 25 25 24 24 25 26 27 27 25 26 25 24 24 26
25 28 31 32 34 33 35 35 34 33 29 24 19 17 16 16 17 19 21 23 25 26 26 25 24 24 24 24 24 24 23 23 23 22 23 23 23 25 25 25 24 25 26
20 22 24 25 27 25 24 23 23 22 20 15 13 14 15 17 18 20 23 24 25 26 25 25 25 24 23 24 23 23 23 22 22 22 21 22 21 21 22 24 25 25 26
15 16 17 16 17 15 13 12 14 13 12 11 12 13 16 18 20 22 24 24 24 24 25 25 25 24 23 23 23 22 22 22 22 22 21 21 21 21 21 22 23 24 25
5 6 6 6 6 6 6 7 7 8 9 10 12 15 17 19 21 22 23 23 23 23 24 24 24 23 23 23 22 22 22 22 22 22 22 21 21 21 21 21 22 22 22
5 5 5 5 5 6 6 5 6 8 10 12 14 17 19 20 20 21 22 22 22 22 22 23 23 22 22 22 21 21 22 22 22 22 23 23 22 22 21 22 22 22 22
6 7 7 7 6 6 6 7 8 10 12 14 16 18 19 19 18 19 19 20 21 21 21 22 22 22 22 22 21 22 22 22 22 22 22 23 23 23 23 22 22 22 23
7 6 5 4 3 4 6 8 10 12 14 15 16 17 16 17 17 17 17 18 19 20 21 21 22 22 23 23 23 22 22 22 23 23 23 23 23 23 24 23 23 22 23
6 5 3 1 1 3 5 7 9 11 12 13 14 14 14 14 15 16 17 19 20 20 21 22 22 23 24 24 23 23 23 22 22 23 23 24 24 24 23 23 23 23 23
9 7 6 4 3 3 4 5 7 8 10 12 13 15 15 16 17 18 19 20 21 22 22 23 23 23 23 23 22 22 22 22 22 22 22 23 23 23 23 23 23 23 23
11 9 8 6 5 4 5 6 7 9 11 13 14 15 17 17 18 19 20 21 22 23 23 23 22 22 23 22 22 21 21 21 21 22 22 22 22 22 22 23 23 23 23
11 10 8 7 6 6 7 8 9 11 12 13 15 16 17 18 19 20 21 21 22 22 22 22 21 21 21 21 21 20 20 20 20 20 21 22 22 21 22 22 23 23 23
11 10 9 8 8 9 9 10 11 12 13 15 16 16 17 18 19 19 19 20 20 19 19 19 18 18 18 18 19 19 19 19 20 20 21 21 22 22 22 22 22 22 23
10 10 10 10 11 11 12 12 13 14 15 16 16 17 17 18 18 18 17 17 17 16 16 16 16 16 16 17 17 18 19 19 20 21 21 21 22 22 22 22 22 22 22
12 12 12 12 13 14 14 15 15 16 16 17 17 17 18 17 17 17 16 16 15 14 14 13 14 14 15 15 16 17 18 18 20 20 21 21 22 22 22 22 22 22 22
13 13 13 14 15 16 17 17 17 18 18 18 18 18 17 17 17 17 16 15 14 13 12 11 11 12 12 13 14 15 15 16 17 19 19 20 21 21 21 21 21 21 21
13 14 14 15 16 16 17 17 18 18 17 17 18 18 18 17 18 17 16 15 14 13 11 10 10 10 10 10 10 11 11 13 14 15 17 18 18 19 19 19 19 19 20
14 14 15 16 16 16 16 17 17 17 17 17 18 18 18 18 18 18 17 16 15 13 12 12 11 10 10 9 9 8 7 7 8 9 11 12 13 14 14 15 16 16 17

GEFSMW_500_meanwind_036.txt.gz
Wind_Speed
35 35 34 34 33 31 30 29 28 28 28 27 27 27 26 24 24 23 23 22 22 21 20 20 19 19 19 19 18 19 19 19 20 20 20 20 20 20 20 20 21 22 23
38 37 37 36 36 35 33 32 31 31 30 31 30 30 29 28 27 26 26 25 23 22 22 21 20 20 20 20 20 21 21 21 21 21 22 22 23 23 22 22 22 23 24
37 37 37 37 37 37 36 35 34 34 34 34 34 33 33 31 30 29 28 27 25 24 23 22 21 21 21 21 21 21 22 22 23 23 24 25 25 25 24 24 24 24 25
35 34 35 36 37 38 38 38 37 37 37 37 37 38 37 35 34 32 30 29 28 25 23 23 22 22 22 23 23 23 23 24 24 25 25 26 27 27 27 27 26 26 26
32 32 33 34 35 37 39 40 40 40 39 39 39 39 40 38 38 35 33 30 28 26 24 23 23 24 24 24 24 24 24 24 25 25 26 27 27 28 28 27 27 26 26
32 31 32 32 34 36 39 41 42 42 41 41 41 41 42 40 38 36 34 33 30 27 25 23 24 24 24 24 24 24 25 25 25 26 26 26 26 27 27 27 27 25 24
31 32 32 32 34 36 38 41 42 42 43 44 43 42 41 43 41 38 35 34 32 28 24 22 23 22 23 23 24 24 25 25 25 25 25 25 26 26 26 25 26 26 25
29 30 31 33 34 35 36 39 41 42 42 44 43 43 43 43 41 39 37 35 31 26 22 20 21 21 22 22 23 23 23 23 23 24 24 24 25 25 24 24 25 26 26
26 27 29 30 31 32 33 35 37 38 39 40 42 41 41 41 39 38 36 32 27 20 17 18 19 20 21 21 21 21 22 22 22 22 23 23 24 23 24 23 23 24 25
22 23 25 26 26 26 27 30 33 35 36 36 35 35 36 36 34 28 25 22 17 14 15 16 18 19 20 20 20 20 20 21 21 22 22 22 22 22 22 22 22 22 24
16 16 17 18 19 20 21 23 26 30 31 31 30 28 28 26 23 20 17 13 11 12 15 17 18 18 19 19 19 19 19 20 21 21 21 21 21 21 21 22 22 22 23
8 8 9 11 12 13 14 15 18 19 20 21 19 16 15 14 12 10 9 9 11 13 15 16 17 18 18 19 19 19 20 21 21 21 22 21 21 21 21 22 22 21 21
4 5 5 5 6 6 7 8 9 9 9 10 9 7 6 6 5 6 7 9 11 13 15 16 17 18 18 19 19 20 20 21 21 21 22 22 22 21 21 22 22 21 21
7 7 9 10 9 8 7 8 7 7 5 5 5 3 1 2 5 7 9 10 12 14 16 17 18 19 19 20 20 21 21 21 21 22 22 22 22 22 22 22 22 22 21
12 11 11 12 11 10 9 8 7 6 4 2 0 2 3 5 6 8 10 11 13 15 16 17 18 19 20 21 21 21 21 21 22 22 22 22 23 23 23 23 23 23 22
12 11 10 10 9 8 7 7 6 4 2 2 3 4 6 8 9 11 12 14 15 17 18 19 20 20 20 21 22 22 21 22 22 22 23 23 23 23 23 23 24 24 23
14 13 12 11 10 9 8 7 7 6 5 4 5 7 8 10 12 13 15 17 18 19 20 21 22 22 22 22 22 22 22 23 23 23 22 22 23 23 23 23 23 24 24
15 14 13 12 11 10 9 9 7 7 6 6 7 8 10 12 14 15 17 19 20 22 23 23 24 24 24 24 23 23 23 23 23 22 22 22 22 22 22 22 23 23 24
13 13 12 11 10 10 9 9 8 8 8 9 10 11 12 14 15 17 18 19 21 22 23 23 23 24 24 24 24 23 23 23 22 22 21 21 21 21 21 21 21 22 23
12 12 11 11 10 10 9 9 9 9 10 10 11 12 13 14 15 16 17 19 20 20 21 22 22 23 23 22 22 22 22 21 21 21 20 20 20 20 20 20 20 21 21
12 12 12 11 11 10 10 10 10 10 11 11 12 12 12 13 14 15 16 16 17 17 18 18 19 19 19 19 19 19 19 19 19 19 19 18 19 19 18 18 19 20 20
13 12 12 12 11 11 11 11 11 11 12 12 12 13 13 13 14 15 16 16 16 15 15 15 15 15 16 16 16 17 17 18 18 18 18 18 18 19 18 18 18 18 19
13 13 13 13 13 13 13 13 13 13 13 13 13 14 15 16 16 16 16 16 15 14 13 13 12 12 12 13 13 14 14 15 16 16 17 17 17 17 17 17 17 17 17
13 14 14 14 14 14 14 14 14 15 15 15 15 16 16 17 17 18 17 16 15 14 13 12 11 10 10 10 10 11 11 12 13 14 14 14 15 15 16 16 16 16 16
14 14 14 14 14 15 15 15 15 16 16 16 17 17 18 18 18 19 18 17 17 16 15 13 12 11 10 9 8 8 8 7 7 8 9 10 11 11 12 13 13 13 13
13 14 14 15 15 15 15 15 15 16 16 17 17 17 17 18 19 20 20 19 18 18 17 16 15 13 12 11 10 9 8 6 4 3 3 4 5 5 6 7 8 9 9

GEFSMW_500_meanwind_042.txt.gz
Wind_Speed
42 40 38 37 37 36 35 35 34 32 31 30 30 30 30 29 27 25 24 25 25 25 25 26 26 25 25 24 23 23 22 21 20 20 19 19 19 19 20 20 20 19 18
43 43 41 40 39 38 38 37 36 35 34 34 34 34 34 32 29 27 26 26 27 27 28 28 28 27 27 27 25 24 23 22 22 22 21 21 21 21 21 22 23 22 21
43 42 41 40 39 39 39 38 38 37 37 36 36 36 36 34 32 30 30 30 30 30 30 30 30 30 29 28 27 26 24 23 23 23 22 22 22 23 23 23 24 25 23
40 40 39 39 38 38 38 38 38 38 38 37 37 37 38 36 35 34 33 32 33 32 32 32 32 32 31 30 29 27 26 25 24 24 24 24 24 25 25 25 25 26 26
36 36 36 36 36 36 36 37 37 37 37 38 38 38 40 40 39 37 37 36 36 36 36 35 34 32 31 32 31 29 27 26 25 26 25 25 25 26 25 26 26 26 26
32 33 33 34 34 35 35 35 36 36 36 36 36 37 39 39 40 41 40 39 39 39 38 36 34 32 31 31 31 30 28 27 26 26 26 26 26 26 26 26 26 26 25
32 31 31 31 32 33 34 35 35 34 34 35 36 36 37 40 41 39 39 41 41 41 37 34 33 32 31 31 31 30 28 26 26 26 26 26 26 26 26 26 26 26 25
32 31 31 30 30 31 32 33 34 35 35 35 36 37 38 39 40 39 39 41 39 38 38 37 36 33 31 31 31 30 28 26 25 25 25 25 25 26 26 26 26 25 25
30 30 31 31 30 30 30 31 33 34 35 35 35 35 36 37 37 38 38 37 38 37 37 34 31 31 31 30 30 28 26 24 24 24 24 25 26 26 25 25 25 25 25
23 25 26 27 28 29 29 29 30 31 31 31 32 33 33 33 35 35 34 33 33 33 31 29 29 28 28 27 26 24 23 23 23 24 24 25 25 25 25 25 25 25 25
15 16 19 21 23 24 25 25 25 25 26 27 28 29 29 28 29 29 29 28 27 26 25 25 25 24 23 22 21 21 21 22 24 24 24 25 25 25 25 25 25 25 25
10 12 13 14 15 16 17 18 18 19 19 20 21 22 21 21 20 21 21 20 19 17 16 16 17 16 16 17 18 19 21 22 23 24 24 25 25 25 25 25 25 24 24
4 5 6 6 7 8 9 10 10 11 11 11 10 10 10 11 11 12 12 11 10 10 10 11 12 13 14 16 18 20 21 22 23 23 24 24 24 25 25 24 24 24 24
5 4 3 2 1 2 1 2 2 2 2 2 3 3 3 3 3 3 4 4 5 7 8 10 12 14 16 17 19 20 20 21 22 23 24 24 24 24 24 24 24 23 23
14 13 11 10 10 10 10 9 9 9 8 7 6 5 4 3 3 3 3 4 5 7 9 12 14 16 17 18 19 20 21 22 22 23 22 23 23 23 23 24 24 24 24
20 19 17 15 14 14 13 13 12 11 10 9 8 7 6 5 5 5 6 8 9 11 12 14 16 17 18 19 20 21 22 22 22 22 22 22 22 22 23 23 23 23 23
18 19 19 18 17 16 15 14 12 12 11 10 9 8 7 7 7 8 9 10 11 13 14 15 17 18 19 20 21 22 22 22 22 22 22 22 22 22 21 22 22 22 22
18 17 17 16 16 16 15 14 14 13 12 11 10 10 9 9 9 10 10 11 12 13 15 16 18 19 19 20 21 21 22 22 22 22 21 21 21 21 21 20 21 21 21
18 18 17 16 16 16 15 15 14 14 14 13 13 13 12 12 12 12 12 13 13 14 14 15 16 16 17 18 19 20 21 21 21 20 20 20 20 20 20 19 18 18 18
17 17 17 17 16 16 16 15 15 15 15 15 15 14 14 14 14 14 14 14 14 14 14 15 15 14 15 15 16 17 18 18 18 17 17 17 18 18 17 16 16 16 16
17 17 17 17 17 16 16 16 16 16 17 17 16 16 17 17 17 16 16 16 15 15 15 14 13 13 13 13 13 13 14 14 14 14 14 14 14 14 14 14 14 14 14
16 17 17 17 17 17 17 17 17 17 17 18 18 18 19 19 19 19 19 18 17 16 16 15 13 13 12 11 11 10 10 11 11 11 11 12 11 12 12 12 12 12 12
16 16 16 16 16 17 17 17 17 18 18 18 19 19 20 20 20 20 20 20 19 18 18 16 15 14 12 10 9 8 7 7 7 7 8 9 9 9 10 10 11 11 11
16 16 16 16 16 16 16 16 17 17 18 18 19 20 20 21 21 21 21 21 20 20 19 18 16 15 15 13 11 8 6 4 2 3 4 5 5 6 7 7 8 9 9
15 15 15 15 15 15 16 16 17 17 17 18 19 20 20 21 21 22 22 22 21 21 20 19 18 17 17 15 14 11 9 6 4 2 1 1 1 2 2 3 4 5 5
14 14 15 15 15 15 16 16 16 16 17 18 18 19 20 20 21 22 22 23 23 22 21 20 20 19 19 17 16 14 13 11 9 7 6 5 4 2 1 1 1 1 2

GEFSMW_500_meanwind_048.txt.gz
Wind_Speed
39 39 40 40 39 39 39 38 36 35 34 32 31 30 29 29 28 28 27 26 25 24 24 22 21 21 21 21 23 23 24 24 23 23 23 23 21 20 19 18 17 18 17
41 41 42 42 41 41 42 41 40 38 36 35 34 33 32 32 30 28 28 29 29 27 25 24 23 23 22 22 23 25 26 26 26 25 25 24 24 23 22 20 19 19 20
42 42 42 42 43 43 43 43 42 41 39 38 37 36 35 35 34 32 32 31 31 29 28 26 25 24 23 23 22 25 27 27 27 28 27 27 27 25 24 23 21 21 22
40 41 40 40 41 42 44 44 43 42 41 40 39 38 38 36 36 35 35 33 32 32 31 29 27 25 24 24 24 24 26 27 27 28 29 29 28 27 26 25 24 23 23
39 40 39 39 38 37 38 39 40 40 40 39 39 38 38 37 37 37 35 33 33 32 31 31 29 28 26 26 26 26 26 27 28 29 30 30 30 30 28 28 27 26 25
35 36 37 36 34 33 32 33 35 35 37 38 38 37 37 36 36 36 35 34 34 33 30 29 28 28 28 28 28 26 26 27 27 29 30 31 30 30 29 29 29 27 27
31 31 31 30 29 29 29 29 31 32 33 34 35 35 35 35 35 34 34 33 32 32 31 30 30 30 30 29 29 29 29 29 28 28 29 31 31 32 30 29 28 28 27
23 23 23 24 25 25 25 26 27 29 30 31 32 32 32 33 32 31 31 31 31 31 31 30 30 29 29 29 30 30 30 30 30 29 30 30 30 31 30 29 28 27 26
15 15 16 17 18 20 21 23 24 25 27 28 29 29 29 29 30 30 30 30 31 30 31 30 30 29 29 30 29 30 31 31 30 29 29 29 29 30 29 28 27 26 25
12 11 10 11 12 14 16 18 20 22 24 26 27 27 27 28 28 29 29 29 30 29 29 29 28 29 28 26 27 28 27 27 26 26 26 26 27 27 26 25 25 24 24
13 9 7 7 8 9 11 13 15 17 18 20 22 23 23 24 24 25 26 26 25 25 24 24 25 24 24 23 23 24 24 25 25 24 25 25 26 25 24 23 23 23 23
12 10 9 7 6 6 6 7 8 10 12 14 15 17 18 19 20 20 19 19 19 19 19 19 20 20 20 20 21 21 22 23 24 24 23 23 23 22 22 22 22 22 22
15 13 13 10 7 6 5 3 3 4 5 6 8 10 10 11 12 12 12 12 12 13 14 14 14 14 14 15 16 17 17 18 19 19 19 19 19 20 21 22 22 23 22
18 17 15 14 12 10 9 8 7 5 4 3 1 1 1 3 3 4 5 5 6 7 8 8 9 9 10 11 13 14 14 15 16 17 18 18 19 20 21 21 22 23 23
18 18 18 17 16 16 15 14 13 12 11 10 8 6 5 4 3 2 2 3 4 4 6 7 8 9 11 12 13 15 16 16 16 17 18 18 19 20 21 21 22 22 22
19 19 18 17 16 15 14 14 14 14 13 12 10 9 8 7 7 5 4 4 5 6 7 9 10 12 13 14 15 16 17 18 18 19 19 19 19 20 21 21 21 21 21
18 19 19 19 19 18 17 16 16 15 14 13 12 11 10 9 8 8 7 7 7 8 8 9 11 13 14 15 17 18 19 20 20 20 20 20 20 20 20 19 20 19 19
18 18 18 18 19 19 19 18 18 17 17 16 15 14 12 11 11 10 10 10 10 10 11 11 12 14 15 16 17 18 19 20 20 20 20 20 20 19 19 19 18 18 18
18 18 18 18 18 18 19 19 18 18 18 18 17 17 16 15 14 13 12 12 11 11 11 12 13 14 15 16 16 17 17 18 19 19 19 19 19 18 18 17 17 17 17
19 19 19 19 19 19 19 19 19 19 19 18 18 17 17 17 17 16 15 14 13 12 12 12 13 13 14 15 15 16 16 16 16 17 17 17 17 17 16 16 15 15 15
19 19 20 20 19 19 19 19 19 19 18 18 18 18 18 18 18 17 17 16 16 15 14 13 13 12 12 12 12 12 13 13 13 13 14 14 14 14 14 13 13 13 12
18 18 19 19 19 18 18 18 18 18 18 18 19 19 18 18 19 19 18 18 17 17 16 15 14 12 11 11 9 8 8 8 9 10 10 10 11 11 10 10 10 10 9
17 17 17 17 18 18 18 17 17 18 18 18 19 19 19 19 19 20 20 19 19 18 17 16 15 14 13 11 8 6 4 3 3 4 5 6 6 7 7 7 7 7 8
16 16 16 17 17 17 17 17 17 17 18 18 18 19 20 20 20 21 21 20 20 19 18 18 17 16 15 13 11 8 6 5 3 2 2 2 3 3 3 4 4 4 5
15 15 15 15 15 15 16 16 16 17 17 17 18 19 20 20 21 21 22 22 21 20 20 19 19 18 18 16 15 13 11 10 9 7 6 5 4 3 3 2 1 1 1
12 12 13 13 14 14 15 15 16 16 17 17 18 19 19 20 20 21 22 22 23 22 21 21 20 20 19 18 18 17 15 14 13 12 11 10 9 8 7 6 5 5 4

GEFSMW_500_meanwind_054.txt.gz
Wind_Speed
39 40 41 42 42 42 43 43 42 42 42 41 40 37 36 35 34 33 32 30 27 26 26 25 24 23 23 23 23 23 23 23 22 21 21 21 20 19 18 18 18 17 16
41 42 43 44 44 45 45 45 45 44 44 44 43 41 40 38 35 33 33 31 30 28 26 27 26 25 25 25 25 25 24 24 23 23 23 23 22 22 21 20 20 20 19
39 40 43 44 45 46 46 46 46 45 45 44 44 43 41 41 38 35 34 34 33 31 31 29 27 26 26 26 26 27 27 26 25 24 24 24 24 24 23 23 23 22 22
39 39 40 41 42 43 44 44 44 44 44 44 43 43 42 41 39 38 36 36 35 33 32 31 29 28 27 27 28 27 27 27 26 26 26 25 25 25 25 25 24 24 24
36 37 38 38 38 39 39 39 40 41 42 41 41 41 41 41 39 38 38 37 36 35 33 31 30 30 29 30 30 29 28 28 27 27 27 27 27 27 27 27 27 27 26
33 34 33 32 32 33 34 34 35 36 37 37 37 37 37 38 37 37 37 36 37 36 34 32 30 30 31 30 30 30 29 29 29 29 28 29 29 29 28 28 29 29 29
27 27 27 26 26 26 28 28 27 27 28 30 31 32 32 33 34 34 35 35 35 35 35 34 31 30 30 31 30 29 29 29 29 29 30 31 31 31 31 31 31 31 31
21 21 20 21 20 20 19 19 19 20 20 21 22 24 25 25 27 29 31 31 31 32 31 31 30 29 29 28 29 30 30 30 30 31 31 31 32 32 33 33 32 32 31
17 17 16 15 13 12 11 11 12 13 16 17 17 18 19 19 20 23 25 25 27 27 27 27 27 27 28 28 29 29 29 29 30 30 31 31 33 34 35 35 34 33 32
17 15 13 12 11 9 8 7 7 7 9 10 11 13 15 15 16 18 20 22 23 24 25 26 26 27 27 28 30 30 30 30 29 29 29 30 31 33 33 34 33 32 32
16 15 14 12 11 10 8 6 5 5 4 5 6 8 10 12 13 14 16 18 19 20 21 21 23 25 25 26 26 26 26 27 27 28 29 30 30 30 30 30 30 30 30
17 17 16 15 14 12 10 8 7 6 4 2 2 4 5 7 8 10 12 13 15 16 17 18 20 21 21 22 23 23 24 25 25 25 26 26 26 26 27 27 27 28 28
19 19 17 17 17 16 14 13 11 10 9 7 5 3 1 2 3 5 7 8 10 11 12 14 16 17 18 19 20 20 21 22 21 21 21 22 24 24 25 25 26 27 26
20 20 19 18 18 18 18 18 16 14 13 12 10 8 7 5 4 3 2 3 4 6 8 10 12 13 14 14 15 16 17 17 18 18 19 19 20 19 20 21 20 20 19
21 20 20 20 20 19 18 18 17 17 16 15 14 12 11 10 9 7 6 5 5 5 6 7 8 8 9 9 11 12 13 14 14 15 15 15 14 14 14 15 15 15 15
20 21 21 21 21 20 20 20 19 19 18 17 16 14 13 13 12 10 9 8 7 7 7 7 8 8 8 9 10 10 11 12 12 12 12 12 11 12 12 12 12 13 13
19 21 22 22 22 22 21 20 20 20 19 19 18 17 16 15 14 13 11 10 9 9 8 8 8 8 9 9 10 10 10 10 10 11 11 11 11 11 10 11 11 11 11
20 20 21 21 21 21 21 21 20 19 20 19 19 18 17 16 15 14 13 12 11 11 10 11 10 9 10 10 10 11 11 11 11 11 11 11 10 10 10 10 10 10 11
20 20 20 21 21 21 21 21 21 20 20 19 19 19 19 18 17 17 16 15 14 13 12 12 11 11 10 10 10 10 10 11 10 11 11 11 10 10 10 10 10 10 11
19 19 19 19 20 20 20 20 20 20 20 20 20 20 19 19 19 19 18 17 16 16 15 13 12 12 10 9 9 8 8 8 8 8 9 9 9 9 9 9 9 10 10
18 18 18 18 18 19 19 19 20 20 20 20 20 20 20 20 20 19 19 18 17 17 16 15 14 13 12 9 8 6 5 4 5 6 6 7 7 8 8 7 7 8 8
16 17 17 17 17 18 18 19 19 19 20 20 21 21 21 21 21 20 20 19 19 18 18 17 16 14 13 11 9 8 5 3 1 2 4 4 5 5 5 5 5 5 5
15 15 16 16 17 17 18 18 19 19 20 20 21 21 21 21 21 21 21 20 20 19 18 18 17 16 15 13 12 10 9 7 5 4 4 4 4 3 4 3 3 3 4
13 14 15 15 16 17 17 18 18 19 20 20 21 21 21 21 21 21 21 21 21 20 19 19 18 17 17 16 15 14 13 11 10 9 8 7 6 6 5 5 4 3 2
11 12 13 14 15 16 17 17 18 18 19 20 20 21 22 21 21 21 22 22 22 21 20 20 20 19 18 17 17 16 15 14 14 13 12 10 9 8 7 6 5 4 3
10 11 11 12 13 14 15 16 17 18 19 19 20 20 21 21 21 21 22 22 22 21 21 21 21 20 19 19 18 17 17 16 15 14 13 12 11 10 9 8 8 7 7

GEFSMW_500_meanwind_060.txt.gz
Wind_Speed
37 38 39 40 41 42 43 44 45 47 48 48 47 47 45 44 43 42 42 39 38 36 37 36 34 32 30 27 26 25 25 24 23 22 21 22 22 23 22 22 21 20 20
37 38 39 40 41 42 42 43 44 45 46 47 47 48 48 47 45 44 44 42 39 38 37 35 34 33 31 29 28 27 27 26 24 23 23 23 24 24 24 24 23 23 23
35 35 37 38 38 39 40 41 42 43 44 45 46 46 47 47 46 45 44 43 42 39 37 36 34 32 31 30 29 28 27 27 26 25 24 23 24 25 25 24 25 25 25
31 31 32 34 35 36 37 38 39 39 40 42 43 43 44 44 44 44 44 42 41 41 39 37 36 33 31 30 30 29 29 28 27 26 26 26 26 26 26 26 26 26 26
28 29 29 30 30 31 31 32 33 35 36 38 39 39 40 40 41 42 42 42 40 39 38 36 35 35 33 32 30 28 28 27 27 28 28 28 28 28 28 28 28 27 27
24 24 25 25 25 25 25 27 29 30 31 32 33 34 35 36 36 37 38 39 39 38 38 37 35 34 33 31 30 27 27 27 27 28 29 30 30 31 31 30 30 30 30
20 20 20 20 20 20 21 21 22 22 24 24 26 27 28 30 31 33 35 35 36 35 35 35 35 34 32 31 29 28 27 27 28 28 30 31 31 32 32 32 32 32 32
16 17 17 16 16 16 16 15 15 15 15 15 17 19 21 23 25 27 29 31 32 33 33 33 32 33 33 32 31 30 30 30 30 30 30 30 31 32 33 33 34 33 33
15 16 17 15 13 12 13 12 12 11 9 8 8 10 13 15 18 21 24 26 29 29 30 30 30 30 30 31 31 31 30 31 31 31 31 32 32 32 33 33 34 34 34
15 16 16 14 13 13 13 12 11 8 6 4 3 3 6 9 12 15 17 20 21 23 25 26 26 26 26 28 29 29 28 29 30 30 30 31 31 31 31 34 34 34 35
15 15 15 15 14 14 14 13 12 10 8 6 4 2 1 3 6 9 12 14 16 18 20 21 22 23 25 25 25 26 27 27 28 28 29 30 30 31 31 32 32 33 33
16 17 17 18 17 17 16 16 15 13 12 10 7 5 3 1 1 4 6 9 12 14 16 17 18 20 21 22 23 25 26 27 28 28 29 30 30 31 31 31 32 32 32
19 19 19 20 20 19 19 18 18 16 14 12 10 7 6 4 1 1 2 4 6 9 11 13 15 17 18 19 21 23 25 26 27 27 27 28 28 29 30 30 30 30 29
19 21 21 21 20 20 20 19 19 18 18 16 14 12 10 8 6 4 1 2 3 5 7 9 11 13 14 16 17 19 21 22 23 24 24 24 23 24 25 25 26 27 27
19 20 21 21 21 21 21 20 20 20 19 18 17 15 13 11 9 7 5 4 2 3 4 6 8 10 11 13 15 16 17 17 18 19 20 20 21 22 22 22 22 23 24
19 19 20 21 21 21 21 20 20 20 20 18 17 16 15 14 12 11 9 7 5 4 3 4 6 8 9 10 11 13 13 15 16 17 17 17 17 19 19 19 18 17 17
19 20 20 21 21 21 20 20 20 20 19 19 18 17 15 14 13 12 11 9 8 7 5 5 6 7 8 9 10 10 11 12 13 14 15 14 14 14 15 15 15 15 14
19 19 20 21 21 21 21 20 20 20 20 20 19 18 17 16 15 14 13 12 10 9 7 6 6 6 6 7 8 9 11 11 12 12 12 12 12 12 12 13 12 12 13
18 18 19 19 20 20 20 20 20 20 20 20 20 19 18 17 16 16 14 13 12 11 9 8 8 7 6 5 4 5 6 8 8 9 9 9 10 10 10 11 11 11 11
16 17 17 18 19 19 19 19 20 20 20 20 20 20 19 18 18 17 17 16 14 13 11 10 9 8 7 6 4 2 4 5 6 7 8 8 8 9 10 10 10 9 9
15 16 16 17 17 18 19 19 20 20 20 20 20 20 20 19 19 19 18 17 16 15 13 12 11 10 9 7 5 3 1 3 4 6 7 7 8 8 9 9 9 8 8
15 15 16 16 17 17 18 18 19 20 20 20 20 20 20 20 20 19 19 19 17 16 15 14 13 12 11 10 8 6 4 3 3 5 6 6 7 7 8 8 8 7 7
13 14 15 15 16 17 17 18 19 19 20 21 21 21 21 21 20 20 19 19 19 18 17 16 15 15 14 13 12 10 8 7 6 6 6 6 7 7 7 7 6 6 6
11 12 13 14 15 15 16 17 18 18 19 20 21 21 20 20 21 20 20 20 20 19 18 17 17 16 15 15 14 13 12 11 9 8 8 8 7 7 7 6 5 5 5
10 10 11 12 13 14 15 16 17 17 18 19 20 20 20 20 20 20 20 20 20 20 20 19 18 17 17 16 15 14 14 13 11 10 9 9 8 8 7 6 6 6 6
9 9 10 10 11 12 13 14 15 16 17 18 18 19 19 19 19 19 20 20 20 20 20 19 19 18 17 17 16 16 15 14 13 13 12 11 10 10 9 8 8 7 6